Volver al catálogo

COSMOS 2251 DEB

LostLEO
NORAD 37296·DEBRIS·🇷🇺 Russia

Lanzado Jun 16, 1993 desde Plesetsk Cosmodrome

Loading…

Próximos Pases (próximas 24 horas)

TLE

ObsoletoSource: Space-Track

Época: Jun 25, 2023, 17:41 UTC

1 37296U 93036BJL 23176.73702097  .00023179  00000-0  47809-2 0  9994
2 37296  73.8385 323.8197 0061694  63.5473 297.2002 14.59158448684481

Sigue COSMOS 2251 DEB en tiempo real con AllMySat

Download on the App Store